Forside
METAR-TAF:

METAR-TAF

Lufthavne :

West Bend Municipal Airport

West Bend, Wisconsin, USA

Breddekreds: 43-25-20N, længdekreds: 088-07-41W, højde: 270 m

Aktuelle vejr

Denne rapport blev lavet for 22 minutter siden, kl. 18:15 UTC
Vind 9 kt fra vest
Temperatur 6°C
Fugtighed 26%
Tryk 1025 hPa
Sigt: 16.1 km
skyfri

METAR: KETB 021815Z AUTO 28009KT 10SM CLR 06/M12 A3027 RMK AO2

Tid: 12:37 (18:37 UTC)


TAF: fraværende

Vejrobservationer og prognoser fra mere end 4000 lufthavne (METAR og TAF).

De gule og røde prikker repræsenterer de meteorologiske stationer.

Flyt musen over at se navnet på stationen.

Så klik over at se vejr observationer og prognoser.

At skifte det kort: Klik på de grønne knapper med et sort kors for at zoome ind; på den grønne knap med en bindestreg for at zoome ud; eller på de grønne pile for tilstødende kort.


METAR-TAF: